Location: Bieujac
(44.5398°N, 0.1549°W)
Time: 01:45:50
(UTC+00:00)

Cosmos 1802 Rocket - Pass Details

Date: 17 November 2019
Orbit: 953 x 1012 km, 82.9° (Epoch: 12 December)

Event Time Altitude Azimuth Distance (km) Brightness Sun altitude
Rises 04:54:34 0° 177° (S) 3,730 7.2 -22.1°
Reaches altitude 10° 04:57:06 10° 175° (S) 2,785 6.5 -21.6°
Maximum altitude 05:03:27 68° 94° (E) 1,087 4.4 -20.5°
Drops below altitude 10° 05:09:49 10° 13° (NNE) 2,791 6.4 -19.4°
Sets 05:12:22 0° 11° (N) 3,739 7.1 -18.9°
